User: anonymous   Login
Location: Unspecified
(0.0000°N, 0.0000°E)
Time: 03:22:21
(UTC+00:00)
Language:

STARLINK-30148 - Orbit

View from above orbital plane
View from above orbital plane
View from above satellite
View from above satellite

Ground track
Ground track

The orbit is defined by the following mean orbital elements,

1 57617U          26145.34636808 +.00000000 +00000-0 +41840-4 0 00006
2 57617  43.0070   8.3608 0001452 261.2964  98.7723 15.27582503    03
Epoch (UTC): 25 May 2026 08:18:46
Eccentricity: 0.0001452
inclination: 43.0070°
perigee height: 482 km
apogee height: 484 km
right ascension of ascending node: 8.3608°
argument of perigee: 261.2964°
revolutions per day: 15.27582503
mean anomaly at epoch: 98.7723°

The dashed part of the orbit path shows where the satellite is in the earth's shadow,  

DLR